Miscellaneous Local Product
Issued by NWS North Platte, NE

Home | Current Version | Previous Version | Text Only | Print | Product List | Glossary On
Versions: 1 2 3 4 5 6 7 8 9 10 11 12 13 14 15 16 17 18 19 20 21 22 23 24 25 26 27 28 29 30 31 32 33 34 35 36 37 38 39 40 41 42 43 44 45 46 47 48 49 50
886
AXUS43 KLBF 142210
MISLBF


WESTERN AND NORTH CENTRAL NEBRASKA HOURLY WEATHER ROUNDUP
NATIONAL WEATHER SERVICE NORTH PLATTE NE
400 PM CST THU DEC 14 2017

NOTE: "FAIR" INDICATES FEW OR NO CLOUDS BELOW 12,000 FEET WITH NO
SIGNIFICANT WEATHER AND/OR OBSTRUCTIONS TO VISIBILITY.

NOTE: STATIONS NOT REPORTING VARIABLES SUCH AS SKY/WEATHER OR
PRESSURE ARE PROVIDED BY RAWS AND APRS NETWORKS AND ARE NOT UNDER
NATIONAL WEATHER SERVICE QUALITY CONTROL.

...OBSERVATIONS IN AND NEAR THE EASTERN PANHANDLE OF NEBRASKA...

CITY           SKY/WX    TMP DP  RH WIND       PRES   REMARKS
PINE RIDGE     CLOUDY    34  24  67 N12G21    30.20S WCI  25
GORDON         CLOUDY    32  26  77 N13G22    30.18R WCI  22
CHADRON        CLOUDY    35  21  56 N9        30.22R WCI  28
ALLIANCE       CLOUDY    31  21  66 NW13      30.18S WCI  21
SIDNEY         CLOUDY    34  16  47 N28G38    30.19R WCI  21
CRESCENT LAKE    N/A     31  23  71 NW12        N/A  WCI  22
$$

...OBSERVATIONS IN NORTHERN NEBRASKA AND FAR SOUTHERN SOUTH DAKOTA...

CITY           SKY/WX    TMP DP  RH WIND       PRES   REMARKS
WINNER         CLOUDY    35  30  82 N13       30.14S WCI  26
VALENTINE      CLOUDY    35  30  82 NW17G23   30.15R WCI  25
THEDFORD       FLURRIES  34  29  84 NW23G30   30.15R WCI  22
AINSWORTH      CLOUDY    32  31  95 N16G24    30.14R WCI  22
O`NEILL        DRIZZLE   34  34 100 NW14G20   30.11R WCI  24
ORD            CLOUDY    36  32  85 NW17G26   30.10R WCI  26
BROKEN BOW     CLOUDY    35  34  96 NW16G24   30.12R WCI  25
VALENTINE NWR    N/A     31  29  93 N17G28      N/A  WCI  20
HALSEY           N/A     34  27  75 NW14G23     N/A  WCI  25
BUTTE            N/A     33  30  90 NW17G24     N/A  WCI  22
CHAMBERS         N/A     34  32  93 N5          N/A  WCI  30
EWING            N/A     34  31  90 NW10        N/A  WCI  26
$$

...OBSERVATIONS IN SOUTHWEST NEBRASKA AND FAR NORTHEAST COLORADO...

CITY           SKY/WX    TMP DP  RH WIND       PRES   REMARKS
WRAY           CLOUDY    37  18  44 N22G32    30.19R WCI  27
HOLYOKE        FAIR      36  28  75 N16G24    30.20R WCI  26
IMPERIAL       CLOUDY    36  28  73 N15       30.18R WCI  27
OGALLALA       CLOUDY    38  19  46 N24       30.18R WCI  27
NORTH PLATTE   CLOUDY    38  24  57 NW17G28   30.16R WCI  28
MCCOOK         CLOUDY    40  22  48 N20       30.15R WCI  30
LEXINGTON      CLOUDY    38  28  66 N20       30.14R WCI  28
STAPLETON        N/A     34  26  71 NW3G12      N/A
GOTHENBURG       N/A     37  24  60 N14         N/A  WCI  28
CALLAWAY         N/A     35  30  82 NW21        N/A  WCI  24
$$

...OBSERVATIONS IN CENTRAL LINCOLN COUNTY AREA...

CITY           SKY/WX    TMP DP  RH WIND       PRES   REMARKS
N.P. AIRPORT   CLOUDY    38  24  57 NW17G28   30.16R WCI  28
N.P. DOWNTOWN    N/A     36  25  64 NW12        N/A  WCI  28
N.P. SOUTHEAST   N/A     36  24  63 NW8G18      N/A  WCI  30
N.P. HILLCREST   N/A     36  26  66 NW20G30     N/A  WCI  25
$$

...SOME OBSERVATIONS FROM AROUND THE REGION...

CITY           SKY/WX    TMP DP  RH WIND       PRES   REMARKS
DENVER         PTSUNNY   35  20  54 NE13      30.21R WCI  26
GRAND JUNCTION   N/A     47  15  27 MISG      30.28S
LARAMIE        CLOUDY    23  16  74 NW23      30.19S WCI   7
CHEYENNE       CLOUDY    27  22  81 N13       30.18S WCI  16
CASPER         CLOUDY    31  21  66 SW9       30.23F WCI  23
BISMARCK       CLOUDY    35  25  66 NW13G24   30.12S WCI  26
RAPID CITY     CLOUDY    34  22  61 NW24G32   30.19R WCI  21
PIERRE         CLOUDY    34  27  75 N14       30.15R WCI  25
SIOUX FALLS    FLURRIES  33  28  81 NW8       30.05R WCI  26
OMAHA          CLOUDY    41  25  53 N8        30.07R
GRAND ISLAND   LGT RAIN  36  35  96 NW18G24   30.11R FOG     WCI  26
SCOTTSBLUFF    CLOUDY    35  19  52 N21G28    30.22R WCI  24
KANSAS CITY    MOCLDY    41  24  51 NW5       30.07R
HILL CITY      PTSUNNY   43  28  55 N26G35    30.15R
WICHITA        PTSUNNY   50  27  40 NW15      30.09R
DODGE CITY     CLOUDY    46  25  43 N12       30.12R
OKLAHOMA CITY  MOSUNNY   48  25  40 N17       30.12S
DALLAS         MOSUNNY   60  26  27 N18       30.04R
AMARILLO       SUNNY     45  29  53 NW15      30.16F
$$




USA.gov is the U.S. government's official web portal to all federal, state and local government web resources and services.